Location: Bretagne
(43.8474°N, 0.4650°W)
Time: 15:08:04
(UTC+00:00)

Cosmos 1933 Rocket - Pass Details

Date: 15 January 2026
Orbit: 599 x 624 km, 82.5° (Epoch: 17 February)

Event Time Altitude Azimuth Distance (km) Brightness Sun altitude
Rises 18:33:05 0° 349° (N) 2,901 7.0 -18.2°
Reaches altitude 10° 18:35:20 10° 347° (NNW) 1,987 6.2 -18.6°
Maximum altitude 18:39:43 70° 264° (W) 656 3.8 -19.4°
Drops below altitude 10° 18:44:01 10° 181° (S) 1,955 6.2 -20.1°
Sets 18:46:13 0° 179° (S) 2,850 7.1 -20.5°
